Location: Sweet Grass
(48.9965°N, 111.9649°W)
Time: 06:22:33
(UTC+00:00)

DIWATA 2B (PO-101) - Pass Details

Date: 11 April 2023
Orbit: 581 x 594 km, 98.0° (Epoch: 03 June)

Event Time Altitude Azimuth Distance (km) Brightness Sun altitude
Exits shadow 09:27:15 51° 49° (NE) 744 ? -27.1°
Drops below altitude 10° 09:30:55 10° 355° (N) 1,916 ? -26.8°
Sets 09:33:07 0° 351° (N) 2,823 ? -26.6°
